TimeEST,TemperatureF,Dew PointF,Humidity,Sea Level PressureIn,VisibilityMPH,Wind Direction,Wind SpeedMPH,Gust SpeedMPH,PrecipitationIn,Events,Conditions,WindDirDegrees,DateUTC
12:15 AM,37.4,33.8,87,29.89,5.0,WNW,4.6,-,N/A,,Overcast,300,2014-01-16 05:15:00
12:35 AM,37.4,33.8,87,29.88,3.0,NW,5.8,-,N/A,,Overcast,310,2014-01-16 05:35:00
12:55 AM,39.2,33.8,81,29.87,3.0,NNW,8.1,-,N/A,,Overcast,330,2014-01-16 05:55:00
1:15 AM,39.2,35.6,87,29.88,4.0,NW,5.8,-,N/A,,Overcast,310,2014-01-16 06:15:00
1:35 AM,39.2,35.6,87,29.89,4.0,WNW,5.8,-,N/A,,Overcast,300,2014-01-16 06:35:00
1:55 AM,39.2,35.6,87,29.88,5.0,NW,5.8,-,N/A,,Overcast,320,2014-01-16 06:55:00
2:15 AM,39.2,35.6,87,29.89,6.0,NW,5.8,-,N/A,,Overcast,310,2014-01-16 07:15:00
2:35 AM,39.2,35.6,87,29.89,8.0,NW,8.1,-,N/A,,Overcast,320,2014-01-16 07:35:00
2:55 AM,39.2,35.6,87,29.88,10.0,NNW,6.9,-,N/A,,Overcast,340,2014-01-16 07:55:00
3:15 AM,39.2,33.8,81,29.88,10.0,NW,6.9,-,N/A,,Overcast,310,2014-01-16 08:15:00
3:35 AM,37.4,33.8,87,29.87,10.0,NNW,8.1,-,N/A,,Overcast,330,2014-01-16 08:35:00
3:55 AM,37.4,32.0,81,29.87,10.0,NW,6.9,-,N/A,,Overcast,310,2014-01-16 08:55:00
4:15 AM,37.4,30.2,75,29.87,10.0,NW,9.2,-,N/A,,Overcast,310,2014-01-16 09:15:00
4:35 AM,37.4,30.2,75,29.87,10.0,WNW,10.4,-,N/A,,Overcast,300,2014-01-16 09:35:00
4:55 AM,37.4,28.4,70,29.87,10.0,NW,9.2,-,N/A,,Overcast,320,2014-01-16 09:55:00
5:15 AM,37.4,28.4,70,29.88,10.0,WNW,9.2,-,N/A,,Overcast,300,2014-01-16 10:15:00
5:35 AM,37.4,28.4,70,29.88,10.0,WNW,10.4,-,N/A,,Overcast,290,2014-01-16 10:35:00
5:55 AM,37.4,28.4,70,29.88,10.0,WNW,9.2,16.1,N/A,,Overcast,290,2014-01-16 10:55:00
6:15 AM,37.4,28.4,70,29.87,10.0,NW,10.4,-,N/A,,Overcast,320,2014-01-16 11:15:00
6:35 AM,37.4,28.4,70,29.87,10.0,NW,8.1,-,N/A,,Overcast,310,2014-01-16 11:35:00
6:55 AM,37.4,28.4,70,29.88,10.0,WNW,9.2,-,N/A,,Overcast,300,2014-01-16 11:55:00
7:15 AM,37.4,28.4,70,29.88,10.0,NW,8.1,-,N/A,,Overcast,310,2014-01-16 12:15:00
7:35 AM,37.4,28.4,70,29.88,10.0,NW,10.4,-,N/A,,Overcast,310,2014-01-16 12:35:00
7:55 AM,37.4,28.4,70,29.89,10.0,NW,9.2,-,N/A,,Overcast,320,2014-01-16 12:55:00
8:15 AM,37.4,28.4,70,29.89,10.0,NW,9.2,-,N/A,,Overcast,320,2014-01-16 13:15:00
8:35 AM,37.4,28.4,70,29.91,10.0,WNW,5.8,-,N/A,,Overcast,300,2014-01-16 13:35:00
8:55 AM,37.4,28.4,70,29.91,10.0,NW,9.2,-,N/A,,Overcast,310,2014-01-16 13:55:00
9:15 AM,37.4,28.4,70,29.93,10.0,WNW,8.1,-,N/A,,Overcast,290,2014-01-16 14:15:00
9:35 AM,37.4,28.4,70,29.94,10.0,West,10.4,-,N/A,,Overcast,280,2014-01-16 14:35:00
9:55 AM,37.4,28.4,70,29.93,10.0,WNW,8.1,-,N/A,,Overcast,300,2014-01-16 14:55:00
10:15 AM,37.4,30.2,75,29.94,10.0,NW,9.2,-,N/A,,Overcast,310,2014-01-16 15:15:00
10:35 AM,37.4,30.2,75,29.94,10.0,WNW,5.8,-,N/A,,Overcast,300,2014-01-16 15:35:00
10:55 AM,39.2,30.2,70,29.93,10.0,West,8.1,-,N/A,,Overcast,280,2014-01-16 15:55:00
11:15 AM,39.2,30.2,70,29.91,10.0,WNW,9.2,-,N/A,,Overcast,290,2014-01-16 16:15:00
11:35 AM,39.2,30.2,70,29.90,10.0,NW,5.8,-,N/A,,Overcast,310,2014-01-16 16:35:00
11:55 AM,39.2,30.2,70,29.88,10.0,NW,8.1,-,N/A,,Overcast,320,2014-01-16 16:55:00
12:15 PM,39.2,30.2,70,29.87,10.0,WNW,6.9,-,N/A,,Overcast,300,2014-01-16 17:15:00
12:35 PM,39.2,30.2,70,29.86,10.0,NNW,8.1,-,N/A,,Overcast,330,2014-01-16 17:35:00
12:55 PM,39.2,30.2,70,29.84,10.0,NW,9.2,-,N/A,,Overcast,320,2014-01-16 17:55:00
1:15 PM,39.2,30.2,70,29.86,10.0,WNW,10.4,-,N/A,,Overcast,300,2014-01-16 18:15:00
1:35 PM,39.2,30.2,70,29.85,10.0,WNW,9.2,-,N/A,,Overcast,300,2014-01-16 18:35:00
1:55 PM,39.2,30.2,70,29.86,10.0,NW,10.4,-,N/A,,Overcast,320,2014-01-16 18:55:00
2:15 PM,39.2,30.2,70,29.86,10.0,NW,9.2,-,N/A,,Overcast,320,2014-01-16 19:15:00
2:35 PM,39.2,30.2,70,29.85,10.0,NNW,5.8,-,N/A,,Overcast,340,2014-01-16 19:35:00
2:55 PM,39.2,30.2,70,29.86,10.0,NNW,5.8,-,N/A,,Overcast,340,2014-01-16 19:55:00
3:15 PM,39.2,30.2,70,29.86,10.0,WNW,4.6,-,N/A,,Overcast,300,2014-01-16 20:15:00
3:35 PM,39.2,30.2,70,29.87,10.0,NNW,5.8,-,N/A,,Overcast,330,2014-01-16 20:35:00
3:55 PM,39.2,30.2,70,29.88,10.0,West,5.8,-,N/A,,Overcast,280,2014-01-16 20:55:00
4:15 PM,39.2,30.2,70,29.88,10.0,WNW,3.5,-,N/A,,Overcast,290,2014-01-16 21:15:00
4:35 PM,39.2,30.2,70,29.87,10.0,NW,3.5,-,N/A,,Overcast,310,2014-01-16 21:35:00
4:55 PM,39.2,30.2,70,29.88,10.0,West,4.6,-,N/A,,Overcast,280,2014-01-16 21:55:00
5:15 PM,39.2,30.2,70,29.87,10.0,WNW,5.8,-,N/A,,Mostly Cloudy,290,2014-01-16 22:15:00
5:35 PM,39.2,30.2,70,29.88,10.0,West,4.6,-,N/A,,Overcast,280,2014-01-16 22:35:00
5:55 PM,39.2,30.2,70,29.89,10.0,West,3.5,-,N/A,,Overcast,260,2014-01-16 22:55:00
6:15 PM,37.4,30.2,75,29.90,10.0,West,3.5,-,N/A,,Overcast,260,2014-01-16 23:15:00
6:35 PM,37.4,30.2,75,29.90,10.0,West,3.5,-,N/A,,Overcast,270,2014-01-16 23:35:00
6:55 PM,37.4,30.2,75,29.91,10.0,West,3.5,-,N/A,,Overcast,260,2014-01-16 23:55:00
7:15 PM,37.4,28.4,70,29.92,10.0,West,4.6,-,N/A,,Overcast,270,2014-01-17 00:15:00
7:35 PM,37.4,28.4,70,29.93,10.0,West,4.6,-,N/A,,Overcast,270,2014-01-17 00:35:00
7:55 PM,37.4,28.4,70,29.93,10.0,West,4.6,-,N/A,,Overcast,260,2014-01-17 00:55:00
8:15 PM,37.4,28.4,70,29.94,10.0,West,4.6,-,N/A,,Overcast,270,2014-01-17 01:15:00
8:35 PM,37.4,28.4,70,29.94,10.0,WNW,6.9,-,N/A,,Overcast,290,2014-01-17 01:35:00
8:55 PM,37.4,28.4,70,29.95,10.0,West,5.8,-,N/A,,Overcast,270,2014-01-17 01:55:00
9:15 PM,37.4,28.4,70,29.95,10.0,West,3.5,-,N/A,,Overcast,260,2014-01-17 02:15:00
9:35 PM,37.4,28.4,70,29.95,10.0,WSW,3.5,-,N/A,,Overcast,250,2014-01-17 02:35:00
9:55 PM,37.4,26.6,65,29.95,10.0,West,3.5,-,N/A,,Mostly Cloudy,270,2014-01-17 02:55:00
10:15 PM,35.6,26.6,70,29.95,10.0,West,4.6,-,N/A,,Partly Cloudy,260,2014-01-17 03:15:00
10:35 PM,33.8,26.6,75,29.96,10.0,WSW,4.6,-,N/A,,Clear,250,2014-01-17 03:35:00
10:55 PM,33.8,24.8,70,29.95,10.0,WSW,5.8,-,N/A,,Clear,250,2014-01-17 03:55:00
11:15 PM,33.8,24.8,70,29.95,10.0,West,4.6,-,N/A,,Clear,280,2014-01-17 04:15:00
11:35 PM,32.0,23.0,69,29.95,10.0,West,5.8,-,N/A,,Clear,260,2014-01-17 04:35:00
11:55 PM,32.0,21.2,64,29.95,10.0,West,6.9,-,N/A,,Clear,280,2014-01-17 04:55:00